Location: ?????
(31.8092°N, 35.2590°E)
Time: 14:34:45
(UTC+00:00)

N. Korean satellite - Pass Details

Date: 02 October 2021
Orbit: 450 x 495 km, 97.3° (Epoch: 19 October)

Event Time Altitude Azimuth Distance (km) Brightness Sun altitude
Rises 01:52:19 0° 36° (NE) 2,557 10.9 -22.2°
Reaches altitude 10° 01:55:20 10° 65° (ENE) 1,680 10.3 -21.6°
Maximum altitude 01:57:06 13° 94° (E) 1,492 10.0 -21.2°
Drops below altitude 10° 01:58:53 10° 124° (SE) 1,682 9.9 -20.9°
Sets 02:01:54 0° 152° (SSE) 2,563 10.5 -20.2°
